Probability
16 26 52 48 52 48 52 55 58 65 58 58 55 52 55 52 48 48 45 35 35 32 29 23 19 26 26 23 19 16 13 13 6 6 6 13 3 3 0 0 3 3 6
16 26 52 48 52 45 42 48 55 52 55 58 61 48 52 52 48 45 42 39 39 39 29 23 26 26 26 13 10 13 6 6 3 0 0 0 0 0 0 3 3 0 0
16 29 39 48 45 42 42 39 39 45 52 52 55 48 48 52 48 48 45 42 42 35 29 29 23 23 16 13 10 10 6 3 3 0 0 0 0 0 0 3 3 0 0
19 23 29 42 39 45 39 35 32 39 45 45 45 48 52 52 52 45 42 39 39 39 35 26 26 19 16 16 6 13 6 3 3 0 0 0 0 0 0 3 3 3 3
13 16 26 42 48 39 39 32 32 32 35 39 42 39 42 48 48 45 45 45 42 42 32 32 23 16 16 16 10 10 6 6 3 0 0 0 0 0 0 0 3 10 3
6 10 23 39 45 42 39 29 32 35 35 39 35 35 42 45 52 48 45 42 42 42 39 26 19 19 16 13 13 10 6 6 3 0 0 0 0 0 3 0 0 6 3
6 10 23 39 42 39 32 29 32 35 29 32 39 39 39 39 39 42 45 42 42 39 39 29 23 13 13 13 13 10 10 6 0 0 0 0 0 0 3 0 0 0 0
10 13 13 35 35 35 29 29 29 26 26 32 35 39 32 39 32 35 39 42 42 35 35 32 19 16 13 13 13 10 6 0 0 0 0 0 0 3 0 0 0 0 0
3 10 10 16 19 26 26 19 19 26 23 26 26 35 32 35 32 29 32 35 39 35 29 29 23 19 13 19 16 6 0 0 0 0 0 0 0 3 6 0 0 0 0
6 6 10 10 10 10 10 13 16 23 16 16 13 0 3 16 23 29 26 29 29 32 32 29 23 23 19 10 6 6 0 0 0 0 0 0 0 6 3 0 3 3 0
3 3 3 6 6 6 3 3 6 10 6 6 3 0 0 6 6 19 13 16 23 23 19 23 19 19 3 3 6 3 0 0 0 0 0 0 0 6 3 0 3 3 0
3 3 3 3 6 6 3 0 0 0 0 0 0 0 0 0 3 6 6 10 13 16 16 10 19 16 3 0 0 0 0 0 0 0 0 0 3 6 6 0 3 0 0
0 3 3 3 3 3 0 0 0 0 0 0 0 0 0 0 3 3 3 3 3 3 3 3 6 3 0 0 0 0 0 0 0 0 0 0 6 10 10 6 6 0 0
0 0 3 0 0 0 0 0 0 0 0 0 0 0 0 0 3 3 3 3 0 0 0 3 3 0 0 0 0 0 0 0 0 0 0 0 3 19 13 10 6 0 0
0 0 3 0 0 0 0 0 0 0 0 0 0 0 0 0 3 3 3 3 0 0 0 0 0 0 0 0 0 0 0 0 0 0 0 0 3 6 16 13 3 3 0
0 0 0 3 0 0 0 0 0 0 0 0 0 0 0 0 0 3 3 0 0 0 0 0 0 0 0 0 0 0 0 0 0 0 0 0 0 0 6 13 6 6 3
0 0 0 0 0 0 0 0 0 0 0 0 0 0 0 0 0 0 0 0 0 0 0 0 0 0 0 0 0 0 0 0 0 0 0 0 0 0 0 6 3 10 3
0 0 0 0 0 0 0 0 0 0 0 0 0 0 0 0 0 0 0 0 0 0 0 0 0 3 0 0 0 0 0 0 0 0 0 0 0 0 0 0 3 6 6
0 0 0 0 0 0 0 0 0 0 0 0 0 0 0 0 0 0 0 0 0 0 0 0 0 3 0 0 0 0 0 0 0 0 0 0 0 0 0 0 0 0 0
0 0 0 0 3 0 0 0 0 0 0 0 0 0 0 0 0 0 0 0 0 0 0 0 0 0 0 0 0 0 0 0 0 0 0 0 0 0 0 0 0 0 0
0 0 0 0 0 0 0 0 0 0 0 0 0 0 0 0 0 0 0 0 0 0 0 0 0 0 0 0 0 0 0 0 0 0 0 0 0 0 0 0 0 0 0
0 0 3 3 3 0 0 0 0 0 0 0 0 0 0 0 0 0 0 0 0 0 0 0 0 0 0 0 0 0 0 0 0 0 0 0 0 0 0 0 0 0 0
0 0 3 3 3 0 0 0 0 0 0 0 0 0 0 0 0 0 0 0 0 0 0 0 0 0 0 0 0 0 0 0 0 0 0 0 0 0 0 0 0 0 0
0 0 0 0 0 0 0 0 0 0 0 0 0 0 0 0 0 0 0 0 0 0 0 0 0 0 0 0 0 0 0 0 0 0 0 0 0 0 0 0 0 0 0
0 0 0 0 0 0 0 0 0 0 0 0 0 0 0 0 0 0 0 0 0 0 0 0 0 0 0 0 0 0 0 0 0 0 0 0 0 0 0 0 0 0 0
0 0 0 0 0 0 0 0 0 0 0 0 0 0 0 0 0 0 0 0 0 0 0 0 0 0 0 0 0 0 0 0 0 0 0 0 0 0 0 0 0 0 0
Height
5852 5853 5854 5855 5856 5857 5858 5859 5860 5861 5862 5864 5865 5866 5867 5868 5870 5870 5871 5872 5873 5873 5874 5874 5875 5876 5876 5877 5877 5878 5878 5878 5878 5878 5878 5878 5878 5878 5877 5877 5876 5876 5875
5850 5850 5852 5853 5854 5855 5855 5856 5858 5859 5860 5862 5863 5865 5866 5867 5868 5869 5870 5871 5871 5872 5873 5873 5874 5874 5875 5876 5876 5877 5877 5877 5877 5877 5877 5877 5877 5877 5877 5876 5876 5875 5874
5846 5847 5848 5850 5851 5852 5853 5854 5855 5857 5858 5860 5861 5863 5864 5865 5866 5867 5868 5869 5870 5870 5871 5872 5872 5873 5874 5874 5875 5876 5876 5876 5876 5876 5877 5876 5876 5876 5876 5875 5875 5874 5873
5843 5844 5845 5846 5848 5849 5850 5852 5853 5855 5856 5857 5859 5860 5862 5863 5864 5865 5866 5867 5868 5868 5869 5870 5871 5871 5872 5873 5874 5874 5875 5875 5875 5875 5875 5875 5875 5875 5875 5874 5874 5873 5872
5839 5840 5841 5843 5844 5846 5847 5849 5850 5852 5853 5855 5856 5858 5859 5861 5862 5863 5864 5865 5866 5866 5867 5868 5869 5869 5870 5871 5872 5872 5873 5873 5874 5874 5874 5874 5874 5874 5873 5873 5872 5872 5871
5834 5835 5837 5839 5841 5842 5844 5846 5847 5848 5850 5852 5853 5855 5856 5858 5859 5860 5861 5862 5863 5864 5865 5865 5866 5867 5868 5869 5870 5871 5871 5872 5872 5872 5872 5872 5872 5872 5872 5871 5871 5870 5869
5829 5831 5833 5834 5836 5838 5840 5842 5844 5845 5847 5848 5850 5851 5853 5855 5856 5857 5858 5859 5860 5861 5862 5862 5863 5864 5865 5867 5868 5869 5869 5870 5870 5870 5870 5871 5871 5870 5870 5870 5869 5868 5867
5824 5826 5828 5830 5832 5834 5836 5838 5840 5841 5843 5845 5846 5848 5850 5851 5853 5854 5855 5856 5857 5857 5858 5859 5860 5861 5863 5864 5865 5866 5867 5868 5868 5868 5868 5868 5868 5868 5868 5867 5867 5866 5865
5819 5821 5823 5825 5827 5829 5831 5834 5835 5837 5839 5841 5842 5844 5846 5847 5849 5850 5851 5852 5853 5854 5855 5856 5857 5858 5860 5861 5862 5863 5864 5865 5865 5866 5866 5866 5866 5866 5865 5865 5864 5863 5863
5813 5815 5817 5819 5821 5824 5826 5828 5830 5832 5834 5836 5838 5839 5841 5843 5844 5846 5847 5848 5849 5850 5851 5852 5853 5855 5856 5858 5859 5860 5861 5862 5863 5863 5863 5863 5863 5863 5863 5862 5862 5861 5860
5807 5809 5811 5813 5815 5818 5820 5823 5825 5827 5829 5831 5833 5835 5836 5838 5840 5841 5843 5844 5845 5847 5848 5849 5850 5851 5853 5854 5856 5857 5858 5859 5859 5860 5860 5860 5860 5860 5860 5860 5859 5859 5858
5800 5802 5804 5807 5809 5811 5814 5816 5819 5821 5823 5825 5827 5829 5831 5833 5835 5836 5838 5840 5841 5842 5844 5845 5846 5848 5849 5850 5852 5853 5854 5855 5856 5856 5857 5857 5857 5857 5857 5857 5857 5856 5855
5793 5795 5797 5799 5801 5804 5807 5809 5812 5814 5817 5819 5821 5823 5826 5828 5829 5831 5833 5835 5836 5838 5839 5841 5842 5844 5845 5847 5848 5849 5850 5851 5852 5853 5853 5853 5853 5854 5854 5854 5854 5853 5852
5785 5787 5789 5792 5794 5797 5799 5802 5804 5807 5810 5812 5815 5817 5819 5822 5824 5826 5828 5829 5831 5833 5835 5836 5838 5840 5841 5843 5844 5845 5846 5847 5848 5849 5849 5850 5850 5850 5850 5850 5850 5850 5849
5777 5779 5781 5784 5786 5789 5791 5794 5797 5799 5802 5804 5807 5810 5813 5816 5818 5820 5822 5824 5826 5828 5830 5832 5833 5835 5837 5839 5840 5841 5842 5843 5844 5845 5845 5845 5846 5846 5846 5847 5846 5846 5846
5769 5771 5773 5775 5778 5781 5783 5786 5788 5791 5794 5796 5799 5803 5806 5809 5812 5814 5816 5818 5820 5823 5825 5827 5828 5831 5832 5834 5836 5837 5838 5839 5840 5840 5841 5841 5842 5842 5842 5842 5842 5842 5842
5761 5763 5765 5768 5770 5773 5775 5777 5780 5783 5786 5789 5792 5795 5798 5802 5805 5808 5810 5812 5815 5817 5819 5821 5823 5825 5827 5829 5831 5832 5833 5834 5835 5836 5836 5837 5837 5838 5838 5838 5838 5837 5837
5753 5755 5757 5759 5761 5764 5766 5769 5771 5774 5777 5780 5784 5787 5791 5794 5797 5800 5803 5806 5808 5810 5812 5815 5817 5820 5822 5824 5825 5827 5828 5829 5830 5831 5831 5832 5832 5833 5833 5833 5833 5833 5832
5745 5747 5749 5750 5753 5755 5757 5759 5762 5765 5769 5772 5776 5779 5783 5786 5790 5793 5796 5799 5801 5804 5806 5809 5811 5813 5816 5818 5819 5821 5822 5823 5824 5825 5826 5826 5827 5827 5827 5828 5828 5827 5827
5736 5738 5740 5741 5744 5746 5748 5750 5753 5756 5760 5764 5767 5771 5775 5778 5782 5785 5788 5791 5794 5797 5799 5802 5804 5807 5809 5811 5813 5814 5816 5816 5817 5818 5819 5820 5820 5821 5821 5822 5822 5822 5821
5727 5728 5730 5732 5734 5737 5739 5741 5743 5747 5750 5754 5758 5762 5766 5769 5773 5777 5780 5783 5786 5789 5792 5795 5797 5800 5802 5804 5806 5807 5809 5810 5811 5811 5812 5813 5814 5814 5815 5815 5815 5815 5815
5717 5719 5721 5723 5725 5727 5730 5732 5734 5737 5740 5745 5749 5753 5757 5760 5764 5768 5771 5774 5777 5781 5784 5787 5789 5792 5794 5796 5799 5800 5801 5803 5804 5805 5805 5806 5806 5807 5808 5808 5808 5808 5808
5707 5709 5711 5712 5715 5717 5720 5722 5725 5728 5731 5735 5740 5744 5748 5751 5755 5759 5762 5765 5768 5771 5775 5778 5781 5784 5787 5789 5790 5792 5794 5795 5796 5797 5798 5798 5799 5800 5800 5801 5801 5801 5801
5697 5698 5700 5702 5704 5706 5709 5712 5715 5719 5722 5726 5730 5734 5738 5742 5746 5750 5753 5756 5759 5762 5766 5769 5772 5776 5778 5780 5782 5784 5785 5787 5788 5790 5791 5791 5792 5792 5793 5793 5793 5793 5793
5685 5687 5689 5691 5693 5696 5699 5701 5705 5708 5712 5716 5720 5724 5728 5733 5737 5740 5744 5747 5750 5753 5757 5760 5763 5766 5769 5772 5774 5775 5777 5778 5780 5781 5783 5783 5784 5784 5785 5785 5784 5785 5785
5674 5676 5678 5680 5683 5685 5688 5691 5694 5698 5702 5705 5709 5714 5718 5723 5727 5731 5734 5737 5741 5744 5747 5751 5754 5757 5760 5763 5765 5766 5768 5770 5771 5773 5774 5774 5775 5776 5776 5776 5776 5776 5776
Wind_Speed
14 14 14 14 14 13 13 14 14 13 13 13 12 11 11 11 10 10 10 9 9 9 9 9 9 9 8 8 7 6 5 4 4 3 2 2 1 1 1 2 3 4 5
15 16 16 16 16 15 14 15 15 15 15 14 14 13 12 12 12 12 11 10 10 11 10 10 10 10 9 9 8 8 7 6 5 4 3 3 2 2 2 2 3 4 5
17 18 18 18 17 17 16 15 16 16 16 16 15 14 14 13 13 13 12 12 11 11 12 11 11 11 10 10 9 9 8 7 6 5 4 4 3 3 3 3 4 4 5
19 19 20 20 19 19 18 17 17 17 17 17 17 16 16 15 14 14 13 13 13 12 12 13 12 12 12 11 11 10 9 8 8 7 6 5 5 4 4 5 5 6 6
20 21 21 21 21 20 19 19 18 18 18 19 18 18 17 16 15 15 15 14 14 13 13 14 14 13 13 13 12 11 10 10 9 8 7 6 6 6 6 6 7 7 7
21 21 21 22 22 21 21 20 20 19 19 20 19 19 18 18 17 16 16 16 15 15 14 15 15 15 14 13 13 12 11 11 10 9 9 8 7 7 7 7 8 8 8
22 22 22 22 22 22 22 22 21 21 20 21 21 20 20 19 18 18 17 17 17 16 16 16 16 16 15 15 14 13 12 12 11 10 10 9 9 8 8 8 9 9 9
25 25 24 24 24 23 23 23 23 23 22 22 23 22 21 21 20 19 19 19 18 17 17 17 18 17 16 16 15 14 14 13 12 11 11 10 10 10 10 9 10 10 11
26 26 26 26 25 25 25 24 24 24 24 24 24 24 23 22 22 21 21 20 19 18 18 18 18 17 17 17 17 16 15 15 14 13 12 12 11 11 11 11 11 11 11
28 28 28 28 27 27 26 26 25 26 25 25 25 25 25 24 23 23 22 22 21 20 19 19 19 18 18 17 17 17 17 16 15 15 14 14 13 13 12 12 12 11 11
29 29 29 29 29 29 28 28 28 27 27 26 26 26 26 25 25 24 24 23 23 22 21 20 19 19 18 18 18 18 18 18 17 17 16 15 14 14 13 13 13 13 13
29 30 30 30 30 30 30 30 30 29 28 28 27 27 27 27 27 26 26 25 24 23 22 21 20 20 19 19 19 19 19 19 19 18 17 16 16 15 15 14 14 14 14
31 31 31 32 32 31 31 31 31 31 31 31 30 29 28 28 28 28 27 26 25 24 23 22 21 21 20 19 19 19 20 20 19 19 19 18 17 17 17 16 15 15 14
33 33 33 33 33 33 33 33 33 33 33 33 32 30 30 29 29 29 28 28 26 25 25 23 22 22 21 20 19 19 19 20 20 20 20 19 19 18 18 18 17 16 16
33 34 33 34 35 35 35 35 35 35 34 34 34 32 31 31 31 30 29 29 28 27 26 25 24 23 22 21 21 20 20 20 20 20 20 20 20 20 20 19 19 18 18
33 35 35 34 35 36 36 36 37 37 36 36 35 34 33 32 31 31 30 31 30 29 28 27 26 26 24 23 22 22 21 21 21 21 21 21 21 21 21 21 21 20 20
33 34 35 35 35 36 36 36 37 38 37 37 36 36 35 34 33 32 32 32 32 32 31 30 29 28 27 26 25 24 24 23 22 22 22 22 22 21 22 22 22 22 22
35 36 37 37 36 36 37 37 38 38 38 38 37 37 37 36 36 34 33 34 33 33 33 32 31 30 29 29 27 27 26 25 25 25 24 24 24 24 23 23 23 24 23
36 37 38 38 37 37 37 38 38 39 39 39 38 37 38 38 37 36 35 35 35 34 34 34 33 32 31 31 30 29 29 28 27 27 27 27 27 26 26 25 25 25 25
37 38 39 40 39 39 39 39 39 39 40 40 39 39 39 39 39 38 36 36 37 36 35 35 35 34 33 33 32 32 31 30 29 30 30 30 29 28 28 27 27 27 27
37 38 39 40 40 40 40 39 39 39 40 41 42 41 41 40 41 41 40 39 39 38 38 37 36 36 35 35 34 33 33 32 32 31 31 31 31 30 30 30 30 30 30
37 38 38 39 40 40 41 41 40 39 40 41 42 42 43 42 42 42 41 40 40 40 39 39 39 38 38 37 36 35 35 35 34 33 33 33 33 33 32 32 32 31 31
38 38 39 39 40 41 41 43 42 41 41 42 42 43 43 43 43 42 42 42 42 41 40 40 41 41 40 39 39 38 37 37 36 35 33 34 35 35 35 35 35 34 33
39 39 40 40 41 41 42 44 43 42 42 42 43 44 43 43 43 42 42 43 42 42 42 42 42 41 42 41 40 39 38 38 37 36 36 35 35 36 36 36 36 36 35
39 39 40 41 41 42 42 44 45 44 43 43 44 45 45 44 43 43 43 42 43 43 43 43 43 42 42 42 40 40 39 39 38 37 37 37 37 38 38 37 37 37 37
39 39 39 40 42 42 42 43 44 44 43 43 44 45 45 45 44 42 43 43 43 44 44 44 43 43 42 42 42 42 41 40 40 39 38 38 37 38 38 38 37 38 38
Wind_Direction
240 238 237 236 235 235 236 232 231 230 231 230 229 229 230 232 231 230 230 228 227 227 227 225 224 224 223 223 225 226 225 223 223 225 231 248 278 320 355 3 7 4 3
242 241 239 238 237 236 237 234 233 232 232 232 230 230 231 233 234 232 233 234 232 231 232 232 231 229 229 229 229 230 230 230 232 233 239 257 274 288 305 320 335 341 343
242 241 240 238 237 237 237 236 234 233 233 232 231 231 232 234 235 233 234 235 235 235 235 235 235 235 234 234 233 233 233 233 236 240 248 259 269 279 290 299 313 322 330
243 242 240 238 237 237 237 238 236 235 233 231 231 232 233 234 234 234 234 236 236 237 238 238 238 238 237 236 236 236 237 236 240 243 248 257 266 276 288 295 303 311 318
242 241 240 238 237 236 237 237 237 236 234 233 233 233 234 234 234 234 236 236 237 238 239 240 240 239 238 238 239 239 241 242 244 246 249 256 266 275 286 295 299 302 306
242 240 239 238 237 237 237 236 236 235 235 234 235 235 235 236 236 236 237 237 239 240 241 242 243 241 240 239 239 240 244 247 248 249 252 256 265 275 284 292 296 299 299
243 240 240 239 237 237 238 237 237 236 237 236 236 236 237 237 238 240 239 240 241 243 243 243 244 245 242 240 240 241 245 250 250 253 256 259 265 273 279 286 291 295 296
244 244 242 240 239 238 238 239 238 238 238 238 237 238 238 239 239 241 242 243 244 244 244 243 242 242 244 242 242 244 246 250 252 253 256 260 265 270 274 280 287 293 294
244 244 242 240 241 240 239 239 239 239 239 239 238 239 240 240 240 241 243 244 243 243 243 243 242 241 242 244 244 246 247 250 252 253 256 260 264 267 271 276 284 290 292
244 244 243 241 241 240 240 240 241 240 239 239 240 239 240 241 242 241 242 243 244 244 243 243 242 242 243 245 245 246 249 252 254 253 256 260 264 267 271 275 282 288 291
245 244 244 243 242 242 241 241 241 242 241 240 240 240 241 241 242 241 241 243 244 245 244 243 242 242 243 245 246 247 250 252 253 255 257 261 263 266 271 276 281 285 288
246 244 242 242 242 242 242 242 242 241 241 241 241 241 240 242 242 242 242 243 244 244 244 245 244 243 244 246 247 248 250 252 254 255 258 260 262 264 268 274 279 282 284
247 246 243 241 242 242 241 241 241 241 240 240 241 242 240 241 241 242 243 243 243 244 244 246 246 244 245 247 248 248 249 252 254 256 258 260 261 262 265 269 276 279 281
247 246 245 242 242 242 241 240 241 240 240 240 240 240 241 240 241 242 243 242 242 243 244 245 246 245 245 245 246 249 250 252 254 257 258 260 260 261 264 268 272 276 279
249 246 245 244 243 243 242 242 241 240 240 240 238 239 240 240 240 242 244 242 241 242 243 245 245 246 245 245 246 248 251 254 256 257 258 260 261 261 264 267 271 273 275
250 247 246 246 245 243 243 243 241 240 240 240 238 238 239 240 240 241 242 242 242 242 243 245 244 244 245 247 247 248 251 256 257 258 259 260 261 262 265 266 269 271 273
249 247 247 247 246 245 244 243 241 240 241 241 239 239 239 239 239 241 241 242 242 242 242 243 242 243 246 247 248 249 253 256 257 258 258 260 261 263 265 267 268 270 273
251 249 248 249 248 246 244 243 242 240 241 241 239 239 239 240 239 240 241 242 242 242 241 241 242 244 245 247 249 251 254 258 257 258 258 260 262 262 264 267 269 271 273
252 251 250 249 249 246 244 243 242 241 241 240 239 239 239 240 239 240 241 242 242 243 242 241 242 244 246 248 250 253 255 258 258 258 259 260 262 262 263 266 269 270 273
252 252 251 250 250 247 244 242 243 243 242 239 238 239 239 240 240 240 241 241 241 241 242 243 244 244 246 249 251 253 254 256 258 258 259 260 262 263 264 266 268 270 272
253 252 251 250 250 249 245 243 243 243 243 241 238 238 239 239 240 240 241 241 240 240 242 243 245 245 246 249 251 252 254 257 258 259 259 260 261 262 264 265 268 271 272
253 253 252 250 251 249 245 242 243 243 243 241 239 239 239 240 240 240 241 241 239 240 241 242 244 245 246 248 251 253 254 256 258 258 260 260 260 262 263 265 267 271 272
253 253 252 250 249 249 247 243 244 244 243 241 239 239 239 240 240 239 241 241 239 240 241 242 243 245 246 249 251 252 255 256 257 258 259 260 261 262 264 267 267 271 272
254 253 252 250 249 248 246 244 243 243 242 240 239 239 238 239 239 241 241 242 241 241 241 242 243 245 246 248 250 252 254 256 256 257 259 260 262 263 265 266 269 271 272
253 253 251 250 249 248 246 244 243 242 242 240 239 238 238 238 240 242 242 242 242 242 242 243 243 244 245 248 250 251 253 255 256 258 259 261 262 263 264 265 269 271 272
252 251 250 249 248 247 246 245 243 241 242 241 239 237 237 237 239 241 242 242 242 242 243 244 245 245 246 248 250 251 253 255 257 258 260 262 263 264 264 266 269 271 272